Airfield :
LOGIN :

Register | Disclaimer

   EN    FR    IT 

 










Legend :    VFR   Marginal VFR   IFR   Intensive IFR   Very Intensive IFR
Visi :
Ceiling :
>= 8 km
>= 3000ft
5 to 8 km
1000 to 3000 ft
1500m to 5 km
500 to 1000 ft
800 to 1500m
200 to 500 ft
< 800m
< 200 ft
Symbols :   Thunderstorms  Fog  Heavy snow  Heavy precipitations  Wind > 20 kt
SIGMETs :     Misc.  Thunderstorms  Icing  Turbulence  Mountain Waves  Volcanic Ashes







- Airport Elevation : 863 ft
- IATA code : ZAZ


LEZG - Zaragoza Aragon

CURRENT METAR :
  • 240000Z 12007KT 9999 FEW080 09/04 Q1019

EXPIRED METARs :
  • 232330Z 13007KT 9999 FEW080 09/04 Q1019
  • 232300Z 14006KT 9999 FEW080 08/04 Q1019
  • 232230Z 09004KT 060V120 9999 FEW080 08/04 Q1019
  • 232200Z 12005KT 9999 FEW080 08/03 Q1019
  • 232130Z 07004KT 9999 FEW080 09/05 Q1019

TAF TAF LEZG
Valid from the 24 at 00:00 until the 25 at 00:00 UTC


232300Z 2400/2424 10006KT 9999 FEW050 TX19/2414Z TN07/2406Z
PROB30
TEMPO 2403/2407 RA BKN050
TEMPO 2408/2424 VRB03KT
No reported NOTAMs for that airfield.



MET'MAP, your aeronautical weather chart ! - Copyright ORBIFLY December 2007 - Disclaimer

ORBIFLY MET'MAP TEAM :

Programming & Development : Alexandra Zaïnal
Concept & Development : Baudouin d'Aumeries
Co-Development & Prog : Marc-Olivier Méhu
Technical & hardware support : Manuel Goepfert

Contact : metmap@orbifly.com




SOURCES & CREDITS :

   NOAA